Change the Weather History Date:

Wednesday, November 3, 2010

  Actual Average Record
Temperature  
Mean Temperature 52 °F -  
Max Temperature 62 °F 50 °F 79 °F (1965)
Min Temperature 42 °F 30 °F 5 °F (1991)
Degree Days  
Heating Degree Days 13    
Growing Degree Days 2 (Base 50)    
Moisture  
Dew Point 35 °F    
Average Humidity 61    
Maximum Humidity 87    
Minimum Humidity 27    
Precipitation  
Precipitation 0.00 in - - ()
Sea Level Pressure  
Sea Level Pressure 30.24 in    
Wind  
Wind Speed 15 mph (NW)    
Max Wind Speed 33 mph    
Max Gust Speed 44 mph    
Visibility 10 miles    
Events      
Averages and records for this station are not official NWS values.
T = Trace of Precipitation, MM = Missing Value Source: NWS Daily Summary

Daily Weather History Graph

Daily Weather History Graph

Search for Another Location

Airport or City:

Trip Planner

Search our weather history database for the weather conditions in past years. The results will help you decide how hot, cold, wet, or windy it might be!

Date:

Astronomy

Nov. 03, 2010 Rise Set
Actual Time 8:06 AM CDT 6:19 PM CDT
Civil Twilight 7:36 AM CDT 6:48 PM CDT
Nautical Twilight 7:03 AM CDT 7:22 PM CDT
Astronomical Twilight 6:30 AM CDT 7:55 PM CDT
Moon 5:03 AM CDT (11/3) 4:32 PM CDT (11/3)
Length of Visible Light 11h 11m
Length of Day
10h 12m
Waning Crescent, 9% of the Moon is Illuminated
Nov 3
Waning Crescent
Nov 5
New
Nov 13
First Quarter
Nov 21
Full
Nov 28
Last Quarter

Hourly Weather History & Observations

Time (CDT) Temp. Windchill Dew Point Humidity Pressure Visibility Wind Dir Wind Speed Gust Speed Precip Events Conditions
12:15 AM 48.2 °F - 39.2 °F 71% 30.17 in 10.0 mi WNW 10.4 mph - N/A   Clear
12:35 AM 46.4 °F 42.4 °F 39.2 °F 76% 30.17 in 10.0 mi WNW 8.1 mph - N/A   Clear
12:55 AM 48.2 °F - 39.2 °F 71% 30.17 in 10.0 mi WNW 9.2 mph - N/A   Clear
1:15 AM 46.4 °F 41.5 °F 39.2 °F 76% 30.17 in 10.0 mi WNW 10.4 mph - N/A   Clear
1:35 AM 48.2 °F - 41.0 °F 76% 30.17 in 10.0 mi WNW 10.4 mph - N/A   Clear
1:55 AM 51.8 °F - 41.0 °F 67% 30.17 in 10.0 mi WNW 11.5 mph - N/A   Scattered Clouds
2:15 AM 50.0 °F - 41.0 °F 71% 30.17 in 10.0 mi WNW 10.4 mph - N/A   Partly Cloudy
2:35 AM 48.2 °F - 39.2 °F 71% 30.16 in 10.0 mi WNW 8.1 mph - N/A   Clear
2:55 AM 48.2 °F - 39.2 °F 71% 30.17 in 10.0 mi WNW 13.8 mph - N/A   Clear
3:15 AM 48.2 °F - 39.2 °F 71% 30.19 in 10.0 mi NW 13.8 mph - N/A   Clear
3:35 AM 46.4 °F 41.5 °F 39.2 °F 76% 30.19 in 10.0 mi NW 10.4 mph - N/A   Clear
3:55 AM 46.4 °F 41.1 °F 39.2 °F 76% 30.20 in 10.0 mi NW 11.5 mph - N/A   Clear
4:15 AM 44.6 °F 38.8 °F 39.2 °F 81% 30.20 in 10.0 mi NW 11.5 mph - N/A   Clear
4:35 AM 44.6 °F 38.8 °F 39.2 °F 81% 30.21 in 10.0 mi NW 11.5 mph - N/A   Clear
4:55 AM 44.6 °F 38.4 °F 39.2 °F 81% 30.21 in 10.0 mi NW 12.7 mph - N/A   Clear
5:15 AM 42.8 °F 37.0 °F 39.2 °F 87% 30.21 in 10.0 mi WNW 10.4 mph - N/A   Clear
5:35 AM 42.8 °F 36.2 °F 39.2 °F 87% 30.21 in 10.0 mi NW 12.7 mph - N/A   Clear
5:55 AM 42.8 °F 35.8 °F 39.2 °F 87% 30.22 in 10.0 mi NW 13.8 mph - N/A   Clear
6:15 AM 42.8 °F 35.8 °F 37.4 °F 81% 30.22 in 10.0 mi NW 13.8 mph - N/A   Clear
6:35 AM 42.8 °F 35.4 °F 37.4 °F 81% 30.23 in 10.0 mi NW 15.0 mph - N/A   Clear
6:55 AM 42.8 °F 34.8 °F 37.4 °F 81% 30.25 in 10.0 mi NW 17.3 mph - N/A   Clear
7:15 AM 42.8 °F 34.3 °F 37.4 °F 81% 30.26 in 10.0 mi NW 19.6 mph 25.3 mph N/A   Clear
7:35 AM 42.8 °F 35.4 °F 37.4 °F 81% 30.26 in 10.0 mi NW 15.0 mph - N/A   Clear
7:55 AM 42.8 °F 35.1 °F 35.6 °F 76% 30.27 in 10.0 mi NW 16.1 mph - N/A   Clear
8:15 AM 42.8 °F 35.1 °F 35.6 °F 76% 30.28 in 10.0 mi NW 16.1 mph - N/A   Clear
8:35 AM 42.8 °F 35.4 °F 35.6 °F 76% 30.29 in 10.0 mi NW 15.0 mph - N/A   Clear
8:55 AM 42.8 °F 34.5 °F 35.6 °F 76% 30.30 in 10.0 mi NW 18.4 mph - N/A   Clear
9:15 AM 44.6 °F 37.4 °F 37.4 °F 76% 30.31 in 10.0 mi NW 16.1 mph - N/A   Scattered Clouds
9:35 AM 44.6 °F 36.6 °F 37.4 °F 76% 30.31 in 10.0 mi NW 19.6 mph 25.3 mph N/A   Overcast
9:55 AM 44.6 °F 37.2 °F 37.4 °F 76% 30.32 in 10.0 mi NW 17.3 mph 24.2 mph N/A   Scattered Clouds
10:15 AM 48.2 °F - 35.6 °F 62% 30.31 in 10.0 mi NW 19.6 mph - N/A   Clear
10:35 AM 50.0 °F - 35.6 °F 58% 30.32 in 10.0 mi NW 18.4 mph 26.5 mph N/A   Clear
10:55 AM 51.8 °F - 35.6 °F 54% 30.31 in 10.0 mi NW 19.6 mph 27.6 mph N/A   Clear
11:15 AM 53.6 °F - 35.6 °F 51% 30.30 in 10.0 mi NW 20.7 mph - N/A   Clear
11:35 AM 55.4 °F - 35.6 °F 47% 30.31 in 10.0 mi NW 18.4 mph 24.2 mph N/A   Clear
11:55 AM 57.2 °F - 33.8 °F 41% 30.31 in 10.0 mi NW 19.6 mph 24.2 mph N/A   Clear
12:15 PM 59.0 °F - 32.0 °F 36% 30.30 in 10.0 mi NW 23.0 mph - N/A   Clear
12:35 PM 59.0 °F - 30.2 °F 34% 30.29 in 10.0 mi NW 23.0 mph 27.6 mph N/A   Clear
12:55 PM 60.8 °F - 30.2 °F 31% 30.28 in 10.0 mi NW 23.0 mph 29.9 mph N/A   Clear
1:15 PM 59.0 °F - 30.2 °F 34% 30.27 in 10.0 mi WNW 18.4 mph - N/A   Clear
1:35 PM 60.8 °F - 32.0 °F 34% 30.26 in 10.0 mi WNW 27.6 mph 34.5 mph N/A   Clear
1:55 PM - - - N/A% 30.24 in 10.0 mi WNW 31.1 mph 36.8 mph N/A   Clear
2:15 PM 62.6 °F - 32.0 °F 32% 30.23 in 10.0 mi WNW 26.5 mph 33.4 mph N/A   Scattered Clouds
2:35 PM - - - N/A% 30.22 in 10.0 mi NW 33.4 mph 43.7 mph N/A   Mostly Cloudy
2:55 PM - - - N/A% 30.21 in 10.0 mi NW 33.4 mph 40.3 mph N/A   Mostly Cloudy
3:15 PM 59.0 °F - 32.0 °F 36% 30.21 in 10.0 mi NW 23.0 mph 31.1 mph N/A   Mostly Cloudy
3:35 PM 57.2 °F - 30.2 °F 36% 30.21 in 10.0 mi NW 21.9 mph 33.4 mph N/A   Scattered Clouds
3:55 PM - - - N/A% 30.20 in 10.0 mi NNW 26.5 mph 33.4 mph N/A   Clear
4:15 PM 60.8 °F - 30.2 °F 31% 30.21 in 10.0 mi NW 23.0 mph 34.5 mph N/A   Partly Cloudy
4:35 PM - - - N/A% 30.20 in 10.0 mi NW 27.6 mph 38.0 mph N/A   Clear
4:55 PM - - - N/A% 30.21 in 10.0 mi NW 28.8 mph 41.4 mph N/A   Clear
5:15 PM 59.0 °F - 26.6 °F 29% 30.22 in 10.0 mi NW 27.6 mph 35.7 mph N/A   Clear
5:35 PM 57.2 °F - 23.0 °F 27% 30.23 in 10.0 mi NW 21.9 mph 34.5 mph N/A   Clear
5:55 PM - - - N/A% 30.23 in 10.0 mi NW 26.5 mph 36.8 mph N/A   Clear
6:15 PM 55.4 °F - 24.8 °F 31% 30.24 in 10.0 mi NW 19.6 mph 28.8 mph N/A   Clear
6:35 PM 53.6 °F - 24.8 °F 33% 30.25 in 10.0 mi NW 24.2 mph 28.8 mph N/A   Clear
6:55 PM 51.8 °F - 26.6 °F 38% 30.26 in 10.0 mi NW 18.4 mph 25.3 mph N/A   Clear
7:15 PM 51.8 °F - 26.6 °F 38% 30.26 in 10.0 mi NW 18.4 mph 25.3 mph N/A   Clear
7:35 PM 51.8 °F - 26.6 °F 38% 30.26 in 10.0 mi NW 19.6 mph 26.5 mph N/A   Clear
7:55 PM 50.0 °F - 26.6 °F 40% 30.27 in 10.0 mi NW 16.1 mph 23.0 mph N/A   Clear
8:15 PM 48.2 °F - 28.4 °F 46% 30.27 in 10.0 mi NW 16.1 mph 23.0 mph N/A   Clear
8:35 PM 48.2 °F - 28.4 °F 46% 30.27 in 10.0 mi NW 17.3 mph 24.2 mph N/A   Clear
8:55 PM 46.4 °F 40.1 °F 28.4 °F 50% 30.27 in 10.0 mi NW 15.0 mph - N/A   Clear
9:15 PM 46.4 °F 39.5 °F 28.4 °F 50% 30.28 in 10.0 mi NW 17.3 mph - N/A   Clear
9:35 PM 46.4 °F 39.8 °F 28.4 °F 50% 30.29 in 10.0 mi NW 16.1 mph - N/A   Clear
9:55 PM 46.4 °F 39.5 °F 28.4 °F 50% 30.29 in 10.0 mi NW 17.3 mph - N/A   Clear
10:15 PM 46.4 °F 39.5 °F 28.4 °F 50% 30.30 in 10.0 mi NW 17.3 mph 23.0 mph N/A   Clear
10:35 PM 46.4 °F 39.8 °F 28.4 °F 50% 30.30 in 10.0 mi NW 16.1 mph 21.9 mph N/A   Clear
10:55 PM 44.6 °F 38.1 °F 28.4 °F 53% 30.30 in 10.0 mi NW 13.8 mph - N/A   Clear
11:15 PM 42.8 °F 35.8 °F 28.4 °F 57% 30.31 in 10.0 mi WNW 13.8 mph - N/A   Clear
11:35 PM 41.0 °F 33.9 °F 28.4 °F 61% 30.31 in 10.0 mi NW 12.7 mph - N/A   Clear
11:55 PM 41.0 °F 33.9 °F 28.4 °F 61% 30.31 in 10.0 mi WNW 12.7 mph - N/A   Clear